Погода Добеле

Погода Добеле : погода сейчас, прогноз погоды и архив. Всё, что Вы хотите узнать о погоде Добеле!

Поиск расширенной информации на нашем сайте:

Другие новости

Новости СМИ2

Главная страница сайта

Новости сайта

02.10.2013

Напоминаем, что на нашем новом сайте вы можете получить высокодетализированные прогнозы погоды по пунктам России, СНГ и мира (включающие важные для авиации метеовеличины, такие как направление и скорость ветра, видимость, явления погоды, количество и форма облачности, нижняя и верхняя граница облачности), а также ознакомиться с разнообразными материалами по авиационной метеорологии и подборкой полезных ссылок на эту тему.

Сайт Метеоцентр.Азия посвящён разработке технологий оптимизации авиаметеорологического обслуживания, включая проектирование и перспективное создание нескольких автоматизированных авиаметеорологических систем:
- система выпуска высокодетальных прогностических карт явлений погоды для нижнего воздушного пространства по России и ближнему зарубежью;
- система верификации прогнозов TAF (выпускаемых синоптиками официальных АМСГ РФ и ближнего зарубежья) и AUTOTAF (выпускаемых сайтом Метеоцентр.Азия) - выявление ошибок, онлайн-сопоставление с фактической погодой METAR, автоматическое внесение коррективов в прогнозы при резком отклонении фактической погоды от прогноза, подсчёт оправдываемости прогнозов по элементам и в целом;
- система обработки, анализа и отображения авиаметеорологической информации для применения провайдерами метеорологической информации.


Погода Добеле - сегодня

Время (UTC), дата Ветер
(°,м/с) 
Видим.   Явления Облачность Т
(°С)
Тd
(°С)
f(%) Тe
(°С)
Pmin
(гПа)
dP
(гПа)
Po
(мм)
O2
(г/м3)
Тmin Tmax R s Состояние
почвы
06 22.04.17 290 (З) 8-12{13}  20000 м  {ливн. осадки}  4/3 600 м средняя 
[Sc|Ac trans]
+4.6 +1 77 +1  995.7  2.4  743  294  +2.2       
09 22.04.17 300 (СЗ) 9-14{15}  20000 м    9/4 300 м средняя 
[Sc|Ac trans]
+5.4 -1.2 62 +2  997.9  2.2  744  293           
12 22.04.17 290 (З) 7-11{15}  20000 м  в посл. час ливневой дождь  8/5 300 м средняя 
[Sc|Ac trans]
+6.4 -1.8 56 +4  999  1.2  745  294           
15 22.04.17 290 (З) 7-11{18}  20000 м  в посл. час ливневой дождь  6/3 300 м средняя 
[Sc|Ac trans]
+3.7 +0.5 80 +1  1001.7  2.6  747  296           
18 22.04.17 290 (З) 6{24}  10 км  в посл. час ливневой снег  8/6 300 м средняя 
[Sc|Ac trans]
+1.9 +0.2 88 -1  1002  0.3  747  298    +8     
21 22.04.17 290 (З) 6{11}  10 км    6/3 300 м средняя 
[Sc|Ac trans]
+2.2 -1.7 75 -1  1002.3  0.3  748  298           
00 23.04.17 290 (З) 6{11}  10 км    4/0 средняя 
[Ac trans]
+1.8 -2.2 75 -1  1003.2  0.8  748  300           
03 23.04.17 290 (З) 5{10}  20000 м    1/0 средняя 
[Ac trans]
+1 -2.3 79 -2  1004.3  1.1  749  300           
06 23.04.17 280 (З) 5{10}  20000 м    3/0 средняя, верхняя 
[Ac trans|Ci fib]
+4.7 -0.8 67 +3  1005.8  1.6  750  296  +0.8         
09 23.04.17 260 (З) 3{13}  14000 м  слаб. ливневой снег  8/8 300 м кучево-дожд., верхняя 
[Cb cap|Ci fib]
+4.4 -2.5 61 +3  1007.1  1.3  751  297           
12 23.04.17 290 (З) 5-10{13}  20000 м  в посл. час ливневой снег  6/6 600 м 
[Cu med, cong]
+8.7 -4.6 39 +7  1007.2  0.2  752  294           
15 23.04.17 340 (С) 6{12}  20000 м    6/6 300 м 
[Cu med, cong]
+8.3 -5.3 38 +6  1008.3  752  294           
18 23.04.17 320 (СЗ) 2{12}  10 км    4/0 средняя, верхняя 
[Ac trans|Ci fib]
+4.9 -4.7 50 +5  1009.9  1.6  753  298    +9.8  0.1     
21 23.04.17 220 (ЮЗ) 10 км    ясно 
+0.1 -3.7 76 -1  1010.8  0.8  754  303           
00 24.04.17 220 (ЮЗ) 10 км    ясно 
-1.7 -4.8 79 -3  1010.4  -0.5  754  306           
03 24.04.17 230 (ЮЗ) 20000 м    9/0 средняя, верхняя 
[Ac trans|Ci fib]
-0.7 -2.1 90 -2  1010.1  -0.2  753  304           
06 24.04.17 220 (ЮЗ) 20000 м    8/0 средняя 
[Ac trans]
+2.4 +0.5 87 +2  1010.6  0.5  754  300  -2         
09 24.04.17 230 (ЮЗ) 20000 м    6/6 600 м 
[Cu med, cong]
+6.1 -3.9 49 +5  1010.5  754  297           
12 24.04.17 230 (ЮЗ) 20000 м    8/8 300 м 
[Cu med, cong]
+8.5 -4.7 39 +8  1009.5  -1  753  295           
15 24.04.17 230 (ЮЗ) 3{10}  20000 м  {ливн. осадки}  8/4 300 м средняя 
[Cu med, cong|Ac trans]
+7.9 -2.2 49 +7  1008.9  -0.6  753  294           
18 24.04.17 210 (ЮЗ) 3{10}  10 км  {ливн. осадки}  8/0 средняя, верхняя 
[Ac As|Ci fib]
+6 -4.5 47 +5  1008.3  -0.6  752  296    +9.2  0.0     
21 24.04.17 180 (Ю) 7-11{11}  10 км    10/0 средняя 
[Ac und]
+5.7 -1.1 62 +3  1006.2  -2.1  751  296           
06 25.04.17 200 (Ю) 4{11}  14000 м  {ливн. осадки}  10/10 570 м 
[Sc]
+5.7 +3.6 86 +4  1002.8  748  294  +4       
09 25.04.17 200 (Ю) 12000 м  слаб. ливневой дождь  10/10 480 м кучево-дожд. 
[Cb cap]
+5.4 +3.8 89 +3  1001.9  -0.9  747  294           
12 25.04.17 310 (СЗ) 14000 м  слаб. ливневой дождь  10/10 480 м кучево-дожд. 
[Cb cap]
+5.3 +4.3 93 +4  1000.2  -1.7  746  294           
Время (UTC), дата Ветер
(°,м/с) 
Видим.   Явления Облачность Т
(°С)
Тd
(°С)
f(%) Тe
(°С)
Pmin
(гПа)
dP
(гПа)
Po
(мм)
O2
(г/м3)
Тmin Tmax R s Состояние
почвы

Для получения пояснительной информации подведите курсор к названию столбца.

ПОГОДА Добеле - архив

Всё, что Вы хотите узнать о погоде Добеле - удобно и подробно!

Выберите нужную дату (начиная с 1 января 2015* года) и нажмите кнопку "Найти".
Будут отображены архивные сводки погоды по пункту Добеле, начиная с указанной даты.


Отображать данные в формате CSV (для использования в таблицах Excel)


Внимание! Наш архив погоды предназначен исключительно для личного некоммерческого использования в познавательных целях. Если Вам необходимы официальные справки о состоянии погоды (для производственных, юридических, коммерческих и т.п. целей), обращайтесь в органы Росгидромета.

*Примечание: данная дата относится к архиву по метеостанциям СССР (Россия, СНГ, Балтия).
Архив по метеостанциям Зарубежной Европы и Азии (кроме Китая) хранится 10 дней, по другим регионам земного шара (Китай, Африка, Америка, Австралия, Океания) - 1 день.

Добеле - район местоположения метеостанции


Название, широта, долгота, высота метеостанции:
Добеле 56.6°ш. 23.3°д. 44 м над ур. моря [Латвия]

Дополнительная информация

В oтличие oт бoльшинства пoгoдных сайтoв мы публикуем пoдрoбную метеoинфoрмацию в детальнoм прoфессиoнальнoм фoрмате.

Характеристики температуры и влажнoсти вoздуха измеряются на высoте 2 м в тени вдали oт зданий и деревьев.
Скoрoсть ветра измеряется на высoте 10 м (на урoвне рoста челoвека скoрoсть ветра ниже в 1.5-2 раза). Если метеoстанция нахoдится в гoрoде или в лесу, тo скoрoсть ветра занижена на 2-4 м/с пo сравнению с oткрытым местoм. Скoрoсть ветра над акватoриями крупных рек и oзёр, а также на вершинах хoлмoв на 2-5 м/с выше, чем в oбычных услoвиях.
Атмoсфернoе давление в разных тoчках местнoсти мoжет значительнo oтличаться oт давления на метеoстанции, в зависимoсти oт услoвий рельефа (при пoдъёме на 10 м давление пoнижается примернo на 1 мм рт.ст.).